This demonstration page uses our WeatherBlox Daily Observations layout. Learn more.

Left ArrowRight Arrow

Hourly Observations for July 8, 2022

Temp ( °F °C ) Dew Point ( °F °C ) Humidity (%) Winds ( mph kmh ) Pressure ( in mb ) Visibility ( mi km ) Precip ( " mm )
12:53 am 00:53 Mostly Clear 91 32.8 65 18.3 42 42 SSE 8 13 29.91 1013 10 16 0.00 0.00
1:53 am 01:53 Mostly Clear 90 32.2 65 18.3 44 44 SSE 8 13 29.91 1013 10 16 0.00 0.00
2:53 am 02:53 Mostly Clear 87 30.6 66 18.9 50 50 S 8 13 29.91 1013 10 16 0.00 0.00
3:53 am 03:53 Mostly Clear 87 30.6 68 20 53 53 S 8 13 29.92 1013 10 16 0.00 0.00
4:53 am 04:53 Mostly Clear 85 29.4 69 20.6 59 59 S 10 17 29.93 1014 10 16 0.00 0.00
5:53 am 05:53 Mostly Clear 84 28.9 69 20.6 61 61 S 7 11 29.94 1014 10 16 0.00 0.00
6:53 am 06:53 Mostly Sunny 84 28.9 69 20.6 61 61 S 7 11 29.96 1015 10 16 0.00 0.00
7:53 am 07:53 Mostly Sunny 84 28.9 69 20.6 61 61 S 9 15 29.98 1015 10 16 0.00 0.00
8:53 am 08:53 Mostly Sunny 87 30.6 70 21.1 57 57 VRB 6 9 30.00 1016 10 16 0.00 0.00
9:53 am 09:53 Mostly Sunny 89 31.7 70 21.1 53 53 WSW 9 15 30.00 1016 10 16 0.00 0.00
10:53 am 10:53 Mostly Sunny 93 33.9 69 20.6 46 46 WSW 9 15 29.99 1016 10 16 0.00 0.00
11:53 am 11:53 Mostly Sunny 96 35.6 68 20 40 40 SSW 10 17 29.99 1016 10 16 0.00 0.00
12:53 pm 12:53 Mostly Sunny 99 37.2 67 19.4 35 35 WSW 9 15 29.97 1015 10 16 0.00 0.00
1:53 pm 13:53 Mostly Sunny 101 38.3 66 18.9 32 32 W 8 13 29.95 1014 10 16 0.00 0.00
2:53 pm 14:53 Mostly Sunny 103 39.4 64 17.8 28 28 WSW 7 11 29.93 1014 10 16 0.00 0.00
3:53 pm 15:53 Mostly Sunny 102 38.9 66 18.9 31 31 VRB 6 9 29.92 1013 10 16 0.00 0.00
4:53 pm 16:53 Mostly Sunny 104 40 65 18.3 28 28 S 7 11 29.91 1013 10 16 0.00 0.00
5:53 pm 17:53 Mostly Sunny 102 38.9 65 18.3 30 30 SSE 7 11 29.88 1012 10 16 0.00 0.00
6:53 pm 18:53 Mostly Sunny 102 38.9 65 18.3 30 30 ESE 13 20 29.88 1012 10 16 0.00 0.00
7:53 pm 19:53 Mostly Sunny 101 38.3 66 18.9 32 32 SE 10 17 29.89 1012 10 16 0.00 0.00
8:53 pm 20:53 Mostly Clear 99 37.2 65 18.3 33 33 SE 12 19 29.90 1013 10 16 0.00 0.00
9:53 pm 21:53 Mostly Clear 97 36.1 66 18.9 36 36 SE 10 17 29.92 1013 10 16 0.00 0.00
10:53 pm 22:53 Mostly Clear 96 35.6 66 18.9 37 37 SSE 7 11 29.94 1014 10 16 0.00 0.00
11:53 pm 23:53 Mostly Clear 94 34.4 65 18.3 38 38 S 7 11 29.96 1015 10 16 0.00 0.00

Powered by AerisWeather